Zurück zum Katalog

STARLINK-35531

AktivKommunikationVLEO
NORAD 66112·PAYLOAD·🇺🇸 United States

Gestartet Oct 19, 2025 von Vandenberg Space Force Base

Loading…

Nächste Überflüge (nächste 24 Stunden)

TLE

AktuellSource: CelesTrak SupGP

Epoche: Sep 15, 2026, 03:10 UTC

1 66112C 25236AC  26258.13243056  .00022161  00000+0  65494-3 0  2581
2 66112  53.1574 302.5209 0001372 106.6523  85.6216 15.34370945    10

Verfolge STARLINK-35531 in Echtzeit mit AllMySat

Download on the App Store